Location: Niedergestelen
(46.3129°N, 7.7822°E)
Time: 02:36:24
(UTC+00:00)

N. Korean satellite - Pass Details

Date: 27 September 2021
Orbit: 450 x 495 km, 97.3° (Epoch: 18 October)

Event Time Altitude Azimuth Distance (km) Brightness Sun altitude
Rises 04:08:13 0° 24° (NNE) 2,534 10.7 -13.5°
Reaches altitude 10° 04:10:31 10° 37° (NE) 1,659 10.0 -13.1°
Maximum altitude 04:13:33 26° 95° (E) 994 9.0 -12.6°
Drops below altitude 10° 04:16:35 10° 153° (SSE) 1,667 9.5 -12.1°
Sets 04:18:54 0° 167° (SSE) 2,550 10.3 -11.7°
